[[{"header":{"parameterUnit":"m.s-1","parameterCategory":1,"la1":30.2991,"la2":30.254,"lo1":-89.0895,"lo2":-89.0444,"dy":0.0017,"dx":0.0017,"nx":28,"ny":28,"refTime":"2025-06-14T03:00:00:Z","depth":0,"parameterNumber":2,"parameterNumberName":"U-component_of_WINDS"},"data":[0,0,0,0,0,0,0,0,0,0,0,0,0,0,0,0,0,0,0,0,0,0,0,0,0,0,0,0,0,0,0,0,0,0,0,0,0,0,0,0,0,0,0,0,0,0,0,0,0,0,0,0,0,0,0,0,0,0,0.5627,0.5628,0,0.5776,0.5778,0.5779,0.5861,0.5861,0.5862,0.5862,0.6017,0.6021,0.6025,0,0,0,0,0,0,0,0,0,0,0,0,0,0.5415,0.5418,0.5627,0.5628,0.563,0.5776,0.5778,0.578,0.5861,0.5861,0.5862,0.5862,0.6016,0.6021,0.6025,0,0,0,0,0,0,0,0,0,0,0,0,0,0.553,0.542,0.5626,0.5688,0.5695,0.5775,0.5778,0.578,0.5861,0.5861,0.5862,0.5862,0.6014,0.602,0.6026,0.6057,0,0,0.6044,0.6047,0,0,0,0,0,0,0,0,0.5523,0.5538,0.5677,0.5684,0.5692,0.58,0.576,0.5873,0.5861,0.5798,0.5862,0.5862,0.5945,0.5957,0.5984,0.6064,0.6071,0.6045,0.6048,0.6051,0.6053,0,0,0,0,0,0,0,0.5515,0.5532,0.5686,0.5679,0.5688,0.571,0.5726,0.5782,0.5868,0.5804,0.581,0.5826,0.5949,0.5978,0.5988,0.6073,0.6045,0.605,0.6053,0.6056,0.6187,0.6187,0,0,0,0,0,0,0.5497,0.5524,0.5681,0.569,0.5607,0.5713,0.5732,0.5765,0.5868,0.5884,0.5826,0.583,0.5968,0.5981,0.5994,0.6038,0.6051,0.6056,0.606,0.6187,0.6187,0.6187,0,0,0,0,0,0,0.5492,0.551,0.5675,0.5609,0.5632,0.5717,0.5753,0.5768,0.5797,0.5885,0.5901,0.584,0.5969,0.5986,0.6041,0.6044,0.6059,0.6064,0.6187,0.6187,0.6187,0.6125,0,0,0,0,0,0,0.5486,0.5508,0.5519,0.5609,0.5635,0.5718,0.5754,0.5771,0.5807,0.5813,0.5902,0.5917,0.597,0.6031,0.6047,0.6053,0.6069,0.6188,0.6187,0.6187,0.6127,0.6122,0.6119,0,0,0,0,0,0.5478,0.5496,0.5519,0.5538,0.5651,0.5718,0.5733,0.5793,0.5807,0.582,0.5876,0.5914,0.6041,0.6036,0.6054,0.6062,0.6188,0.6187,0.6187,0.6129,0.6123,0.6119,0,0,0,0,0,0,0.5405,0.5509,0.5536,0.5583,0.5641,0.5731,0.575,0.5786,0.5841,0.5845,0.5919,0.5938,0.5986,0.603,0.6022,0.6098,0.6119,0.6122,0.6068,0.6064,0.6059,0.6048,0.6074,0,0,0,0,0,0.5394,0.5439,0.5528,0.5561,0.5588,0.5664,0.5695,0.5737,0.58,0.5825,0.5886,0.5946,0.6,0.6034,0.6089,0.6133,0.6155,0.6148,0.6144,0.614,0.6142,0.6171,0.6169,0.6187,0.6187,0.6187,0,0,0.5373,0.5435,0.5459,0.5548,0.5598,0.5643,0.5684,0.573,0.5765,0.5833,0.5888,0.5935,0.6007,0.6057,0.6083,0.6095,0.6142,0.614,0.6136,0.6141,0.6171,0.6169,0.6167,0.6187,0.6187,0.6187,0,0,0.5358,0.5408,0.5443,0.5492,0.5566,0.5617,0.5625,0.571,0.5743,0.58,0.5852,0.5895,0.5986,0.6037,0.6074,0.6079,0.6116,0.6095,0.6074,0.6101,0.6099,0.6099,0.6102,0.6102,0.6097,0.6097,0.6096,0,0.5322,0.5392,0.5456,0.55,0.5538,0.56,0.5636,0.5681,0.577,0.5795,0.5808,0.5925,0.5978,0.6042,0.6043,0.6071,0.6083,0.6085,0.6094,0.6094,0.6094,0.6098,0.6099,0.6094,0.6094,0.6094,0.6094,0,0.5345,0.5393,0.5412,0.5496,0.5536,0.5576,0.5647,0.568,0.5719,0.5768,0.5826,0.5892,0.5962,0.598,0.6018,0.605,0.6055,0.608,0.6102,0.6088,0.6093,0.6095,0.6089,0.609,0.6091,0.6092,0,0,0.5287,0.5407,0.5412,0.5452,0.554,0.5579,0.5622,0.5689,0.5717,0.5777,0.5816,0.5892,0.5916,0.5958,0.6003,0.6026,0.6028,0.6049,0.6052,0.6043,0.6068,0.6049,0.605,0.6053,0.6053,0.6054,0.6062,0,0.5285,0.5365,0.5424,0.5481,0.5528,0.5588,0.5626,0.5685,0.5732,0.5779,0.5832,0.5886,0.5912,0.5939,0.5965,0.6022,0.6034,0.6022,0.6091,0.6093,0.6071,0.6052,0.6032,0.6037,0.6064,0.6065,0.6065,0,0.5293,0.535,0.5412,0.5496,0.5518,0.5551,0.5618,0.5662,0.573,0.5764,0.5811,0.5857,0.5907,0.5924,0.5995,0.5985,0.6017,0.605,0.6052,0.6061,0.6078,0.6061,0.604,0.604,0.6068,0.6068,0.6068,0,0.5246,0.5338,0.5388,0.542,0.5519,0.5541,0.5583,0.5652,0.5689,0.5749,0.5774,0.5838,0.5874,0.5923,0.5986,0.5993,0.6051,0.6073,0.6081,0.6079,0.609,0.6089,0.6074,0.6109,0.6109,0.6109,0.6109,0,0.5237,0.5273,0.5368,0.5399,0.5441,0.551,0.555,0.5598,0.5659,0.5701,0.5757,0.5795,0.5876,0.5924,0.5974,0.6025,0.6041,0.607,0.6083,0.6065,0.6061,0.6087,0.6089,0.611,0.611,0.6109,0.6109,0,0.5192,0.5257,0.5315,0.5404,0.5428,0.5455,0.5532,0.5565,0.5616,0.5668,0.5685,0.5765,0.5825,0.5892,0.5975,0.6008,0.6057,0.6075,0.6033,0.6041,0.6045,0.6044,0.6047,0.6051,0.6082,0.6082,0.6082,0,0.5182,0.5211,0.5304,0.5336,0.5377,0.5427,0.5466,0.5535,0.5573,0.5654,0.5677,0.5741,0.5796,0.589,0.5956,0.602,0.604,0.6037,0.605,0.6032,0.6042,0.6039,0.6043,0.6033,0.6033,0.6032,0.6031,0,0.5159,0.519,0.5243,0.5308,0.5352,0.5407,0.5463,0.5486,0.5567,0.5607,0.5669,0.5712,0.5796,0.586,0.5932,0.5977,0.6018,0.6027,0.6032,0.6015,0.599,0.6004,0.6024,0.6026,0.6027,0.6027,0.6028,0.6028,0.5132,0.5161,0.5232,0.5289,0.5339,0.5391,0.5427,0.5482,0.5535,0.5609,0.5647,0.5708,0.5778,0.5879,0.5923,0.5973,0.5986,0.5994,0.5996,0.5997,0.5992,0.5981,0.5986,0.5987,0.5987,0.5987,0.5987,0,0.5113,0.5161,0.5213,0.5291,0.5337,0.5371,0.5436,0.5472,0.5526,0.5587,0.564,0.5712,0.5774,0.5845,0.5912,0.5939,0.596,0.5954,0.5953,0.5963,0.5976,0.5965,0.5937,0.5937,0.5937,0.5937,0.5937,0.5937,0.5108,0.5159,0.5199,0.5277,0.5326,0.5386,0.542,0.5469,0.5518,0.5596,0.5648,0.5694,0.576,0.5832,0.5891,0.5911,0.5933,0.5922,0.5948,0.5958,0.5962,0.5966,0.5956,0.5927,0.5927,0.5931,0.5931,0.5931]},{"header":{"parameterUnit":"m.s-1","parameterCategory":1,"la1":30.2991,"la2":30.254,"lo1":-89.0895,"lo2":-89.0444,"dy":0.0017,"dx":0.0017,"nx":28,"ny":28,"refTime":"2025-06-14T03:00:00:Z","depth":0,"parameterNumber":3,"parameterNumberName":"V-component_of_WINDS"},"data":[0,0,0,0,0,0,0,0,0,0,0,0,0,0,0,0,0,0,0,0,0,0,0,0,0,0,0,0,0,0,0,0,0,0,0,0,0,0,0,0,0,0,0,0,0,0,0,0,0,0,0,0,0,0,0,0,0,0,4.4456,4.4456,0,4.443,4.443,4.443,4.4412,4.4412,4.4411,4.4411,4.4381,4.4381,4.438,0,0,0,0,0,0,0,0,0,0,0,0,0,4.4488,4.4488,4.4456,4.4456,4.4456,4.443,4.443,4.443,4.4412,4.4412,4.4411,4.4411,4.4382,4.4381,4.438,0,0,0,0,0,0,0,0,0,0,0,0,0,4.4469,4.4487,4.4456,4.4444,4.4442,4.4431,4.443,4.443,4.4412,4.4412,4.4411,4.4411,4.4382,4.4381,4.438,4.4378,0,0,4.4377,4.4376,0,0,0,0,0,0,0,0,4.447,4.4468,4.4446,4.4445,4.4443,4.4424,4.443,4.4412,4.4412,4.4423,4.4411,4.4411,4.4396,4.4393,4.4389,4.4376,4.4375,4.4377,4.4376,4.4376,4.4375,0,0,0,0,0,0,0,4.4472,4.4469,4.4446,4.4446,4.4444,4.4439,4.4436,4.4427,4.4411,4.4422,4.4421,4.4418,4.4395,4.439,4.4388,4.4374,4.4377,4.4376,4.4375,4.4375,4.4359,4.4359,0,0,0,0,0,0,4.4475,4.447,4.4447,4.4445,4.4457,4.4438,4.4435,4.443,4.4411,4.4408,4.4419,4.4418,4.4392,4.4389,4.4387,4.4383,4.4376,4.4375,4.4374,4.4359,4.4359,4.4359,0,0,0,0,0,0,4.4476,4.4473,4.4448,4.4457,4.4454,4.4438,4.4433,4.443,4.4425,4.4408,4.4405,4.4417,4.4392,4.4388,4.438,4.4382,4.4374,4.4373,4.4358,4.4359,4.4359,4.4376,0,0,0,0,0,0,4.4477,4.4474,4.4473,4.4458,4.4453,4.4443,4.4433,4.443,4.4424,4.4422,4.4405,4.4402,4.4391,4.4382,4.4379,4.438,4.4373,4.4358,4.4358,4.4359,4.4375,4.4376,4.4378,0,0,0,0,0,4.4478,4.4478,4.4473,4.4471,4.4453,4.4443,4.444,4.4428,4.4424,4.4423,4.4412,4.4403,4.4382,4.4381,4.4378,4.4379,4.4358,4.4358,4.4359,4.4374,4.4376,4.4378,0,0,0,0,0,0,4.4493,4.4476,4.447,4.4465,4.4456,4.444,4.4438,4.4431,4.4421,4.442,4.4404,4.4401,4.4394,4.4386,4.4385,4.4376,4.4369,4.4369,4.4382,4.4383,4.4385,4.4387,4.4372,0,0,0,0,0,4.4496,4.4491,4.4475,4.4472,4.4468,4.4454,4.4449,4.4441,4.443,4.4425,4.4414,4.4403,4.4394,4.4388,4.4379,4.4374,4.437,4.4372,4.4374,4.4375,4.4375,4.4372,4.4373,4.436,4.436,4.436,0,0,4.4502,4.4492,4.4489,4.4475,4.4467,4.4461,4.4451,4.4444,4.4439,4.4424,4.4416,4.4407,4.4394,4.4388,4.4384,4.438,4.4378,4.4376,4.4377,4.4376,4.4373,4.4374,4.4375,4.4361,4.436,4.436,0,0,4.4509,4.4501,4.4498,4.449,4.4478,4.4469,4.4468,4.4453,4.4447,4.4439,4.4428,4.4421,4.4406,4.4397,4.4391,4.4395,4.4387,4.4393,4.44,4.4398,4.4399,4.4399,4.4401,4.4402,4.4393,4.4393,4.4393,0,4.4517,4.4508,4.4497,4.4492,4.4486,4.4473,4.447,4.4462,4.4447,4.4443,4.4439,4.4421,4.4411,4.4402,4.4404,4.4399,4.4397,4.4394,4.44,4.44,4.4401,4.4403,4.4403,4.4394,4.4393,4.4393,4.4393,0,4.4519,4.4513,4.4512,4.45,4.4494,4.4489,4.4476,4.4472,4.4464,4.4455,4.4447,4.4435,4.4423,4.4421,4.4413,4.4411,4.4409,4.4403,4.4396,4.4403,4.4405,4.4405,4.4395,4.4395,4.4394,4.4394,0,0,4.4535,4.4517,4.4516,4.4511,4.4497,4.4492,4.4486,4.4476,4.4473,4.4463,4.4458,4.4446,4.444,4.4433,4.4424,4.4421,4.4426,4.4415,4.4414,4.4418,4.4424,4.443,4.4431,4.442,4.4421,4.4421,4.4426,0,4.454,4.4531,4.4521,4.4516,4.451,4.4498,4.4494,4.4484,4.4476,4.4469,4.446,4.4452,4.4444,4.444,4.4437,4.4426,4.4427,4.4426,4.4415,4.4415,4.442,4.4431,4.4437,4.4442,4.4426,4.4426,4.4426,0,4.4545,4.4537,4.4532,4.4519,4.4516,4.4512,4.4503,4.4497,4.4486,4.448,4.4472,4.4463,4.4456,4.445,4.4441,4.444,4.4435,4.4429,4.4429,4.4428,4.4421,4.4431,4.4444,4.4445,4.4427,4.4427,4.4427,0,4.4557,4.4545,4.454,4.4536,4.4521,4.4519,4.4512,4.4501,4.4496,4.4487,4.4483,4.4473,4.4468,4.446,4.4448,4.4445,4.444,4.4433,4.4435,4.4435,4.4434,4.4435,4.4447,4.4431,4.4431,4.4431,4.4431,0,4.4564,4.4561,4.4546,4.4543,4.454,4.4527,4.4524,4.4516,4.4507,4.4502,4.449,4.4486,4.447,4.4463,4.4454,4.4448,4.4445,4.444,4.4437,4.4441,4.4442,4.4438,4.4437,4.4431,4.4431,4.4431,4.4431,0,4.4577,4.4567,4.4561,4.4548,4.4544,4.4542,4.453,4.4527,4.4518,4.4512,4.451,4.4496,4.4488,4.4475,4.4462,4.4456,4.4452,4.4447,4.4456,4.4455,4.4457,4.4458,4.4468,4.4469,4.4452,4.4452,4.4452,0,4.4582,4.458,4.4567,4.4563,4.4558,4.4552,4.4547,4.4535,4.453,4.4518,4.4516,4.4507,4.4499,4.4486,4.4475,4.4465,4.4461,4.4465,4.4459,4.4463,4.4461,4.4462,4.4462,4.4466,4.4467,4.4467,4.4467,0,4.4593,4.4588,4.4582,4.4574,4.4569,4.4562,4.4554,4.4551,4.4538,4.4533,4.4525,4.4519,4.4507,4.4499,4.4488,4.448,4.4471,4.4469,4.4469,4.4473,4.4478,4.4476,4.446,4.4469,4.4469,4.4469,4.4468,4.4468,4.4602,4.46,4.4591,4.4584,4.4577,4.4571,4.4567,4.4559,4.4552,4.4543,4.4536,4.4528,4.4518,4.4502,4.4495,4.4489,4.4485,4.4485,4.4485,4.4485,4.4487,4.4479,4.4487,4.4487,4.4487,4.4487,4.4486,0,4.4612,4.4606,4.46,4.4591,4.4586,4.4579,4.457,4.4566,4.4561,4.4552,4.4545,4.4536,4.4528,4.4516,4.4507,4.4504,4.45,4.4502,4.4502,4.4501,4.4491,4.4492,4.4506,4.4506,4.4506,4.4506,4.4506,4.4506,4.4617,4.4613,4.4607,4.46,4.4593,4.4587,4.4583,4.4577,4.457,4.4561,4.4555,4.4547,4.4537,4.4528,4.452,4.4516,4.4513,4.4517,4.4512,4.4503,4.4501,4.45,4.4501,4.4516,4.4516,4.4523,4.4523,4.4523]}]]